#timestamp,LO_Frequency,Hit,StdDev 
1615075215.4,286047002.0,N
1615075235.3,286047004.3,N
1615075255.1,286047002.8,N
1615075275.9,286046996.4,N
1615075295.7,286046996.8,N
1615075315.5,286046998.4,N
1615075335.4,286047000.5,N
1615075355.2,286047000.7,N
1615075375.0,286047000.7,N
1615075375.9,286047000.7,N
1615075395.8,286047001.7,N
1615075415.6,286047003.0,N
1615075435.5,286047005.4,N
1615075455.3,286047005.7,N
1615075475.1,286047004.5,N
1615075495.9,286047003.5,N
1615075515.7,286047000.0,N
1615075535.5,286047001.5,N
1615075555.4,286047004.1,N
1615075575.2,286047005.5,N
1615075595.0,286047007.6,N
1615075596.0,286047007.6,N
1615075615.8,286047007.5,N
1615075635.6,286047010.2,Y
1615075655.5,286047009.0,P
1615075675.3,286047009.2,P
1615075695.1,286047011.9,P
1615075715.9,286047009.4,N
1615075735.7,286047014.0,Y
1615075755.6,286047001.7,P
1615075775.4,286047000.1,N
1615075795.2,286047005.8,N
1615075815.1,286047002.7,N
1615075816.0,286047002.7,N
1615075835.8,286047002.3,N
1615075855.6,286047003.2,N
1615075875.5,286047001.7,N
1615075895.3,286046999.7,N
1615075915.2,286046998.3,N
1615075935.9,286047002.4,N
1615075955.7,286047002.1,N
1615075975.6,286047001.0,N
1615075995.4,286047002.1,N
1615076015.2,286047004.4,N
1615076035.1,286047002.3,N
1615076036.0,286047002.3,N
1615076055.8,286047005.5,N
1615076075.7,286047005.8,N
1615076095.5,286047005.6,N
1615076115.3,286047004.7,N
1615076135.2,286047005.3,N
1615076155.9,286047008.9,Y
1615076175.7,286047004.6,P
1615076195.6,286047007.2,P
1615076215.4,286047002.9,N
1615076235.3,286047002.3,N
1615076255.1,286047002.3,N
1615076256.0,286047002.3,N
1615076275.8,286047001.0,N
1615076295.7,286047003.2,N
1615076315.5,286047007.5,Y
1615076335.3,286047001.8,P
1615076355.2,286047001.8,N
1615076375.0,286046999.8,N
1615076375.9,286046999.8,N
1615076395.8,286047001.6,N
1615076415.6,286047005.9,Y
1615076435.4,286047006.5,P
1615076455.3,286047006.7,N
1615076475.1,286047008.4,P
1615076495.9,286047008.0,Y
1615076515.7,286047000.3,P
1615076535.5,286047004.6,N
1615076555.4,286047006.0,N
1615076575.2,286047004.1,N
1615076595.0,286047007.1,Y
1615076595.9,286047007.1,P
1615076615.8,286047007.4,P
1615076635.6,286047006.9,P
1615076655.5,286047008.7,Y
1615076675.3,286046999.3,P
1615076695.1,286046999.1,N
1615076715.9,286046996.8,N
1615076735.7,286046995.0,N
1615076755.5,286046995.4,N
1615076775.4,286046996.2,N
1615076795.2,286046999.1,N
1615076815.1,286047003.9,N
1615076816.0,286047003.9,N
1615076835.8,286047005.0,N
1615076855.6,286047009.1,N
1615076875.5,286047013.9,Y
1615076895.3,286047009.6,P
1615076915.1,286047011.0,N
1615076935.9,286047010.6,N
1615076955.7,286047010.3,N
1615076975.6,286047010.6,N
1615076995.4,286047006.6,N
1615077015.2,286047007.1,N
1615077035.1,286047009.1,N
1615077036.0,286047009.1,N
1615077055.8,286047007.9,N
1615077075.6,286047012.1,Y
1615077095.5,286047001.3,P
1615077115.3,286047001.4,N
1615077135.2,286047002.9,N
1615077155.9,286046999.0,N
1615077175.7,286046996.9,N
1615077195.6,286046997.5,N
1615077215.4,286046993.8,N
1615077235.2,286046990.5,N
1615077255.1,286046991.9,N
1615077256.0,286046991.9,N
1615077275.8,286046992.6,N
1615077295.7,286046991.5,N
1615077315.5,286046997.5,N
1615077335.3,286046996.8,N
1615077355.2,286046995.4,N
1615077375.0,286046997.9,N
1615077375.9,286046997.9,N
1615077395.7,286046996.7,N
1615077415.6,286046997.3,N
1615077435.4,286046999.1,N
1615077455.3,286046997.3,N
1615077475.1,286046999.9,N
1615077476.0,286046999.9,N
1615077495.8,286047001.8,N
1615077515.7,286047006.7,N
1615077535.5,286047006.3,N
1615077555.4,286047006.6,N
1615077575.2,286047008.1,N
1615077595.0,286047006.8,N
1615077595.9,286047006.8,N
1615077615.8,286047001.9,N
1615077635.6,286047002.9,N
1615077655.4,286047003.8,N
1615077675.3,286047006.3,N
1615077695.1,286047011.5,N
1615077715.9,286047010.7,N
1615077735.7,286047004.5,N
1615077755.5,286047007.2,N
1615077775.4,286047009.0,N
1615077795.2,286047008.9,N
1615077815.0,286047004.6,N
1615077815.9,286047004.6,N
1615077835.8,286047006.2,N
1615077855.6,286047004.8,N
1615077875.5,286047002.9,N
1615077895.3,286047004.7,N
1615077915.1,286047005.8,N
1615077935.9,286047003.6,N
1615077955.7,286047004.5,N
1615077975.5,286047008.1,N
1615077995.4,286047008.2,N
1615078015.2,286047004.9,N
1615078035.1,286047005.7,N
1615078036.0,286047005.7,N
1615078055.8,286047005.4,N
1615078075.6,286047003.3,N
1615078095.5,286047004.1,N
1615078115.3,286047001.4,N
1615078135.1,286047004.4,N
1615078155.9,286047000.1,N
1615078175.7,286047005.3,N
1615078195.6,286047004.2,N
1615078215.4,286047001.4,N
1615078235.2,286047002.7,N
1615078255.1,286046998.9,N
1615078256.0,286046998.9,N
1615078275.8,286046997.5,N
1615078295.6,286046997.8,N
1615078315.5,286046997.5,N
1615078335.3,286046997.4,N
1615078355.2,286046996.7,N
1615078375.9,286046993.3,N
1615078395.7,286046996.6,N
1615078415.6,286047000.1,N
1615078435.4,286047000.0,N
1615078455.2,286046998.1,N
1615078475.1,286046999.2,N
1615078476.0,286046999.2,N
1615078495.8,286046996.7,N
1615078515.7,286046999.3,N
1615078535.5,286047000.0,N
1615078555.3,286047001.8,N
1615078575.2,286047003.9,N
1615078595.0,286047001.4,N
1615078595.9,286047001.4,N
1615078615.7,286047002.0,N
1615078635.6,286047002.7,N
1615078655.4,286047002.4,N
1615078675.3,286047003.4,N
1615078695.1,286047001.5,N
1615078696.0,286047001.5,N
1615078715.8,286047003.1,N
1615078735.7,286047004.8,N
1615078755.5,286047001.7,N
1615078775.4,286046998.9,N
1615078795.2,286047000.8,N
